Location: The Saddle
(36.8333°N, 80.3417°W)
Time: 12:20:04
(UTC-04:00)

ARIANE 6 FM1 Upper Stage - Pass Details

Date: 27 May 2026
Orbit: 528 x 599 km, 62.0° (Epoch: 11 June)

Event Time Altitude Azimuth Distance (km) Brightness Sun altitude
Rises 05:27:11 0° 169° (S) 2,772 6.0 -7.5°
Reaches altitude 10° 05:30:25 10° 143° (SE) 1,863 5.4 -6.9°
Maximum altitude 05:32:31 14° 113° (ESE) 1,633 5.5 -6.6°
Drops below altitude 10° 05:34:36 10° 82° (E) 1,847 6.5 -6.2°
Sets 05:37:46 0° 56° (ENE) 2,730 9.1 -5.7°
